ECHOSTAR 18

Last updated on Sun Jun 21 2026 00:03:06 GMT+0000 (Coordinated Universal Time)

1 41592U 16039B 26171.23723676 -.00000287 00000+0 00000+0 0 9999 2 41592 0.0186 13.5557 0001436 84.6845 194.2268 1.00269586 36652
UTC large
Height (km)
Speed (km/s)
/
Latitude / Longitude
Inclination (degrees)
Orbital Period (minutes)
Azimuth
Elevation
Range (km)
Doppler Factor

Next 0 passes for location: London (51.5072 / 0.1276)

No passes found over London.
ECHOSTAR 18